| time (UTC) | temp F | wind direction | speed MPH | gust MPH | rain 1hr in | rain 24hr in | rain mn in | humidity % | barometer mb |
| 20260508134026 | 62 | 0 | 0.0 | 10.0 | 0.00 | 0.42 | 0.42 | 89 | 1014.7 |
| 20260508133526 | 61 | 105 | 9.0 | 10.0 | 0.00 | 0.42 | 0.42 | 91 | 1014.8 |
| 20260508132526 | 61 | 98 | 7.0 | 10.0 | 0.00 | 0.42 | 0.42 | 92 | 1015.0 |
| 20260508131526 | 61 | 80 | 3.0 | 10.0 | 0.00 | 0.42 | 0.42 | 93 | 1015.0 |
| 20260508131026 | 60 | 104 | 8.0 | 10.0 | 0.00 | 0.42 | 0.42 | 92 | 1015.0 |
| 20260508130527 | 60 | 113 | 5.0 | 7.0 | 0.00 | 0.42 | 0.42 | 93 | 1014.9 |
| 20260508130027 | 60 | 128 | 5.0 | 6.0 | 0.00 | 0.42 | 0.42 | 93 | 1015.0 |
| 20260508125027 | 60 | 175 | 5.0 | 6.0 | 0.00 | 0.42 | 0.42 | 94 | 1014.9 |
| 20260508124527 | 60 | 161 | 4.0 | 9.0 | 0.05 | 0.42 | 0.42 | 94 | 1014.8 |
| 20260508124027 | 60 | 175 | 5.0 | 11.0 | 0.10 | 0.42 | 0.42 | 94 | 1014.6 |
| 20260508123026 | 60 | 138 | 9.0 | 11.0 | 0.21 | 0.42 | 0.42 | 95 | 1014.4 |
| 20260508122526 | 59 | 127 | 10.0 | 11.0 | 0.30 | 0.42 | 0.42 | 95 | 1014.4 |
| 20260508122027 | 59 | 133 | 9.0 | 10.0 | 0.35 | 0.42 | 0.42 | 95 | 1014.5 |
| 20260508120527 | 59 | 0 | 0.0 | 8.0 | 0.36 | 0.42 | 0.42 | 95 | 1014.5 |
| 20260508120027 | 59 | 0 | 0.0 | 12.0 | 0.36 | 0.42 | 0.42 | 96 | 1014.6 |
| 20260508115527 | 59 | 165 | 5.0 | 12.0 | 0.36 | 0.42 | 0.42 | 97 | 1014.5 |
| 20260508115026 | 59 | 144 | 8.0 | 11.0 | 0.36 | 0.42 | 0.42 | 97 | 1014.4 |
| 20260508114027 | 59 | 157 | 6.0 | 11.0 | 0.26 | 0.32 | 0.32 | 96 | 1014.7 |
| 20260508113527 | 59 | 225 | 8.0 | 12.0 | 0.15 | 0.21 | 0.21 | 95 | 1015.2 |
| 20260508113027 | 59 | 189 | 7.0 | 12.0 | 0.15 | 0.21 | 0.21 | 95 | 1014.7 |
| 20260508112527 | 59 | 194 | 12.0 | 12.0 | 0.06 | 0.12 | 0.12 | 93 | 1014.5 |
| 20260508112026 | 60 | 210 | 9.0 | 11.0 | 0.01 | 0.07 | 0.07 | 91 | 1014.5 |
| 20260508111527 | 60 | 168 | 8.0 | 11.0 | 0.00 | 0.06 | 0.06 | 89 | 1014.4 |
| 20260508111027 | 60 | 221 | 9.0 | 11.0 | 0.00 | 0.06 | 0.06 | 89 | 1014.9 |
| 20260508105026 | 60 | 187 | 4.0 | 9.0 | 0.00 | 0.06 | 0.06 | 89 | 1014.1 |
| 20260508104027 | 60 | 140 | 7.0 | 11.0 | 0.06 | 0.06 | 0.06 | 89 | 1013.7 |
| 20260508103527 | 60 | 127 | 4.0 | 7.0 | 0.06 | 0.06 | 0.06 | 91 | 1014.0 |
| 20260508103027 | 60 | 182 | 5.0 | 7.0 | 0.06 | 0.06 | 0.06 | 91 | 1014.2 |
| 20260508102527 | 60 | 194 | 4.0 | 7.0 | 0.06 | 0.06 | 0.06 | 90 | 1014.1 |
| 20260508102026 | 60 | 196 | 4.0 | 7.0 | 0.06 | 0.06 | 0.06 | 90 | 1014.1 |
| 20260508101527 | 60 | 167 | 4.0 | 8.0 | 0.06 | 0.06 | 0.06 | 90 | 1014.0 |
| 20260508101026 | 60 | 138 | 5.0 | 8.0 | 0.06 | 0.06 | 0.06 | 90 | 1013.9 |
| 20260508100527 | 60 | 126 | 5.0 | 7.0 | 0.06 | 0.06 | 0.06 | 90 | 1014.1 |
| 20260508100027 | 59 | 203 | 6.0 | 8.0 | 0.06 | 0.06 | 0.06 | 89 | 1014.4 |
| 20260508095527 | 60 | 183 | 5.0 | 8.0 | 0.06 | 0.06 | 0.06 | 89 | 1014.2 |
| 20260508094527 | 60 | 235 | 7.0 | 7.0 | 0.00 | 0.00 | 0.00 | 84 | 1014.6 |
| 20260508094027 | 60 | 187 | 2.0 | 3.0 | 0.00 | 0.00 | 0.00 | 84 | 1014.3 |
| 20260508093527 | 60 | 91 | 2.0 | 3.0 | 0.00 | 0.00 | 0.00 | 83 | 1014.1 |
| 20260508093027 | 60 | 144 | 2.0 | 5.0 | 0.00 | 0.00 | 0.00 | 83 | 1014.1 |
| 20260508092527 | 60 | 201 | 1.0 | 5.0 | 0.00 | 0.00 | 0.00 | 83 | 1014.2 |
| 20260508092026 | 60 | 138 | 5.0 | 5.0 | 0.00 | 0.00 | 0.00 | 83 | 1014.1 |
| 20260508091527 | 60 | 177 | 4.0 | 7.0 | 0.00 | 0.00 | 0.00 | 83 | 1014.1 |
| 20260508091027 | 60 | 208 | 5.0 | 7.0 | 0.00 | 0.00 | 0.00 | 83 | 1014.1 |
| 20260508090028 | 60 | 190 | 4.0 | 10.0 | 0.00 | 0.00 | 0.00 | 83 | 1013.9 |
| 20260508085027 | 60 | 152 | 5.0 | 9.0 | 0.00 | 0.00 | 0.00 | 83 | 1013.8 |
| 20260508084526 | 60 | 139 | 5.0 | 6.0 | 0.00 | 0.00 | 0.00 | 83 | 1013.9 |
| 20260508083027 | 61 | 169 | 5.0 | 7.0 | 0.00 | 0.00 | 0.00 | 80 | 1014.2 |
| 20260508082527 | 61 | 170 | 4.0 | 6.0 | 0.00 | 0.00 | 0.00 | 78 | 1014.3 |
| 20260508082027 | 61 | 135 | 4.0 | 6.0 | 0.00 | 0.00 | 0.00 | 77 | 1014.3 |
| 20260508081527 | 61 | 148 | 5.0 | 6.0 | 0.00 | 0.00 | 0.00 | 77 | 1014.4 |
| 20260508081026 | 61 | 157 | 5.0 | 5.0 | 0.00 | 0.00 | 0.00 | 78 | 1014.5 |
| 20260508080527 | 61 | 143 | 5.0 | 5.0 | 0.00 | 0.00 | 0.00 | 79 | 1014.4 |
| 20260508080027 | 60 | 161 | 4.0 | 6.0 | 0.00 | 0.00 | 0.00 | 79 | 1014.5 |
| 20260508075527 | 60 | 158 | 4.0 | 6.0 | 0.00 | 0.00 | 0.00 | 81 | 1014.7 |
| 20260508074527 | 60 | 228 | 5.0 | 6.0 | 0.00 | 0.00 | 0.00 | 79 | 1014.9 |
| 20260508073527 | 60 | 196 | 4.0 | 7.0 | 0.00 | 0.00 | 0.00 | 80 | 1014.9 |
| 20260508073027 | 60 | 182 | 4.0 | 7.0 | 0.00 | 0.00 | 0.00 | 79 | 1015.1 |
| 20260508072527 | 60 | 203 | 6.0 | 8.0 | 0.00 | 0.00 | 0.00 | 81 | 1015.4 |
| 20260508072027 | 59 | 205 | 5.0 | 9.0 | 0.00 | 0.00 | 0.00 | 83 | 1015.5 |
| 20260508071527 | 59 | 222 | 7.0 | 9.0 | 0.00 | 0.00 | 0.00 | 85 | 1015.7 |
| 20260508071026 | 59 | 230 | 9.0 | 9.0 | 0.00 | 0.00 | 0.00 | 84 | 1015.7 |
| 20260508070527 | 59 | 244 | 7.0 | 8.0 | 0.00 | 0.00 | 0.00 | 83 | 1015.6 |
| 20260508070026 | 59 | 232 | 3.0 | 4.0 | 0.00 | 0.00 | 0.00 | 82 | 1015.4 |
| 20260508065527 | 59 | 235 | 4.0 | 6.0 | 0.00 | 0.00 | 0.00 | 82 | 1015.5 |
| 20260508065027 | 59 | 197 | 2.0 | 7.0 | 0.00 | 0.00 | 0.00 | 82 | 1015.3 |
| 20260508064527 | 59 | 219 | 5.0 | 7.0 | 0.00 | 0.00 | 0.00 | 81 | 1015.7 |
| 20260508064027 | 60 | 220 | 6.0 | 6.0 | 0.00 | 0.00 | 0.00 | 81 | 1015.8 |
| 20260508063027 | 59 | 229 | 4.0 | 5.0 | 0.00 | 0.00 | 0.00 | 81 | 1015.8 |
| 20260508062527 | 60 | 230 | 5.0 | 5.0 | 0.00 | 0.00 | 0.00 | 80 | 1016.0 |
| 20260508062027 | 60 | 217 | 4.0 | 4.0 | 0.00 | 0.00 | 0.00 | 80 | 1015.9 |
| 20260508061527 | 60 | 199 | 2.0 | 6.0 | 0.00 | 0.00 | 0.00 | 80 | 1015.8 |
| 20260508061027 | 60 | 180 | 3.0 | 6.0 | 0.00 | 0.00 | 0.00 | 81 | 1015.9 |
| 20260508060527 | 60 | 146 | 5.0 | 6.0 | 0.00 | 0.00 | 0.00 | 81 | 1016.0 |
| 20260508060028 | 59 | 165 | 3.0 | 4.0 | 0.00 | 0.00 | 0.00 | 81 | 1016.1 |
| 20260508055027 | 59 | 166 | 1.0 | 2.0 | 0.00 | 0.00 | 0.00 | 81 | 1016.1 |
| 20260508054527 | 59 | 195 | 1.0 | 2.0 | 0.00 | 0.00 | 0.00 | 81 | 1016.1 |
| 20260508054027 | 59 | 122 | 2.0 | 3.0 | 0.00 | 0.00 | 0.00 | 81 | 1016.0 |
| 20260508053527 | 60 | 103 | 1.0 | 3.0 | 0.00 | 0.00 | 0.00 | 81 | 1016.0 |
| 20260508052527 | 61 | 136 | 3.0 | 3.0 | 0.00 | 0.00 | 0.00 | 77 | 1015.8 |
| 20260508052027 | 61 | 173 | 3.0 | 3.0 | 0.00 | 0.00 | 0.00 | 77 | 1015.8 |
| 20260508050527 | 61 | 236 | 4.0 | 4.0 | 0.00 | 0.00 | 0.00 | 77 | 1015.8 |
| 20260508045027 | 61 | 221 | 5.0 | 5.0 | 0.00 | 0.00 | 0.00 | 78 | 1016.0 |
| 20260508044527 | 61 | 220 | 5.0 | 5.0 | 0.00 | 0.00 | 0.00 | 78 | 1016.0 |
| 20260508044027 | 61 | 244 | 4.0 | 6.0 | 0.00 | 0.00 | 0.00 | 77 | 1016.1 |
| 20260508043027 | 61 | 233 | 5.0 | 6.0 | 0.00 | 0.00 | 0.00 | 75 | 1016.0 |
| 20260508042527 | 61 | 234 | 4.0 | 5.0 | 0.00 | 0.00 | 0.00 | 75 | 1015.8 |
| 20260508042027 | 61 | 217 | 4.0 | 5.0 | 0.00 | 0.00 | 0.00 | 75 | 1015.9 |
| 20260508041527 | 61 | 197 | 4.0 | 5.0 | 0.00 | 0.00 | 0.00 | 75 | 1015.8 |
| 20260508041027 | 61 | 216 | 4.0 | 5.0 | 0.00 | 0.00 | 0.00 | 75 | 1015.8 |
| 20260508040027 | 61 | 186 | 4.0 | 5.0 | 0.00 | 0.00 | 0.00 | 76 | 1016.0 |
| 20260508035527 | 61 | 202 | 3.0 | 5.0 | 0.00 | 0.00 | 0.00 | 75 | 1016.0 |
| 20260508035027 | 62 | 192 | 4.0 | 5.0 | 0.00 | 0.00 | 0.00 | 74 | 1015.8 |
| 20260508034527 | 62 | 203 | 5.0 | 5.0 | 0.00 | 0.00 | 0.00 | 74 | 1015.8 |
| 20260508034027 | 62 | 151 | 4.0 | 5.0 | 0.00 | 0.00 | 0.00 | 74 | 1015.7 |
| 20260508033027 | 62 | 168 | 4.0 | 5.0 | 0.00 | 0.00 | 0.00 | 73 | 1015.7 |
| 20260508032527 | 62 | 148 | 5.0 | 5.0 | 0.00 | 0.00 | 0.00 | 73 | 1015.6 |
| 20260508032027 | 63 | 162 | 4.0 | 6.0 | 0.00 | 0.00 | 0.00 | 72 | 1015.6 |
| 20260508031527 | 63 | 149 | 5.0 | 6.0 | 0.00 | 0.00 | 0.00 | 72 | 1015.7 |
| 20260508031027 | 63 | 134 | 6.0 | 6.0 | 0.00 | 0.00 | 0.00 | 72 | 1015.5 |
| 20260508030527 | 63 | 130 | 6.0 | 7.0 | 0.00 | 0.00 | 0.00 | 71 | 1015.6 |
| 20260508030027 | 63 | 138 | 5.0 | 7.0 | 0.00 | 0.00 | 0.00 | 70 | 1015.5 |
| 20260508025527 | 63 | 140 | 5.0 | 6.0 | 0.00 | 0.00 | 0.00 | 70 | 1015.3 |
| 20260508025028 | 63 | 142 | 3.0 | 6.0 | 0.00 | 0.00 | 0.00 | 70 | 1015.3 |
| 20260508024527 | 63 | 134 | 4.0 | 7.0 | 0.00 | 0.00 | 0.00 | 71 | 1015.3 |
| 20260508024027 | 63 | 0 | 0.0 | 7.0 | 0.00 | 0.00 | 0.00 | 71 | 1015.3 |
| 20260508023527 | 63 | 141 | 5.0 | 9.0 | 0.00 | 0.00 | 0.00 | 71 | 1015.1 |
| 20260508023027 | 63 | 128 | 7.0 | 10.0 | 0.00 | 0.00 | 0.00 | 71 | 1015.1 |
| 20260508022027 | 64 | 0 | 0.0 | 8.0 | 0.00 | 0.00 | 0.00 | 69 | 1015.1 |
| 20260508021527 | 64 | 0 | 0.0 | 11.0 | 0.00 | 0.00 | 0.00 | 69 | 1015.0 |
| 20260508021027 | 64 | 125 | 10.0 | 12.0 | 0.00 | 0.00 | 0.00 | 68 | 1015.0 |
| 20260508020527 | 65 | 114 | 11.0 | 12.0 | 0.00 | 0.00 | 0.00 | 67 | 1015.0 |
| 20260508020029 | 65 | 0 | 0.0 | 10.0 | 0.00 | 0.00 | 0.00 | 65 | 1015.0 |
| 20260508015527 | 66 | 104 | 9.0 | 10.0 | 0.00 | 0.00 | 0.00 | 63 | 1014.9 |
| 20260508015028 | 66 | 104 | 9.0 | 10.0 | 0.00 | 0.00 | 0.00 | 61 | 1014.8 |
| 20260508014527 | 67 | 0 | 0.0 | 6.0 | 0.00 | 0.00 | 0.00 | 58 | 1014.8 |
| 20260508014031 | 67 | 134 | 4.0 | 4.0 | 0.00 | 0.00 | 0.00 | 57 | 1014.8 |
| 20260508012027 | 67 | 125 | 4.0 | 5.0 | 0.00 | 0.00 | 0.00 | 57 | 1014.7 |
| 20260508011027 | 68 | 116 | 5.0 | 6.0 | 0.00 | 0.00 | 0.00 | 57 | 1014.7 |
| 20260508010527 | 68 | 110 | 4.0 | 6.0 | 0.00 | 0.00 | 0.00 | 57 | 1014.8 |
| 20260508010027 | 68 | 120 | 4.0 | 6.0 | 0.00 | 0.00 | 0.00 | 55 | 1014.7 |
| 20260508005527 | 68 | 119 | 4.0 | 6.0 | 0.00 | 0.00 | 0.00 | 55 | 1014.7 |
| 20260508005027 | 68 | 114 | 5.0 | 6.0 | 0.00 | 0.00 | 0.00 | 55 | 1014.6 |
| 20260508004527 | 68 | 110 | 5.0 | 7.0 | 0.00 | 0.00 | 0.00 | 55 | 1014.5 |
| 20260508003028 | 69 | 133 | 5.0 | 7.0 | 0.00 | 0.00 | 0.00 | 54 | 1014.8 |
| 20260508002527 | 69 | 119 | 5.0 | 7.0 | 0.00 | 0.00 | 0.00 | 53 | 1014.8 |
| 20260508001527 | 70 | 123 | 5.0 | 8.0 | 0.00 | 0.00 | 0.00 | 52 | 1014.9 |
| 20260508001028 | 70 | 185 | 7.0 | 9.0 | 0.00 | 0.00 | 0.00 | 50 | 1014.9 |
| 20260507235528 | 71 | 128 | 7.0 | 7.0 | 0.00 | 0.00 | 0.00 | 49 | 1014.9 |
| 20260507235027 | 71 | 145 | 6.0 | 7.0 | 0.00 | 0.00 | 0.00 | 48 | 1014.8 |
| 20260507234027 | 71 | 151 | 5.0 | 7.0 | 0.00 | 0.00 | 0.00 | 46 | 1014.9 |
| 20260507233528 | 71 | 157 | 4.0 | 9.0 | 0.00 | 0.00 | 0.00 | 47 | 1014.9 |
| 20260507233027 | 71 | 126 | 8.0 | 10.0 | 0.00 | 0.00 | 0.00 | 46 | 1015.0 |
| 20260507232027 | 72 | 142 | 10.0 | 11.0 | 0.00 | 0.00 | 0.00 | 46 | 1014.9 |
| 20260507231527 | 72 | 147 | 6.0 | 11.0 | 0.00 | 0.00 | 0.00 | 46 | 1014.9 |
| 20260507231027 | 72 | 209 | 6.0 | 11.0 | 0.00 | 0.00 | 0.00 | 45 | 1015.0 |
| 20260507230528 | 72 | 121 | 5.0 | 9.0 | 0.00 | 0.00 | 0.00 | 48 | 1015.1 |
| 20260507230027 | 71 | 101 | 5.0 | 12.0 | 0.00 | 0.00 | 0.00 | 48 | 1015.0 |
| 20260507225527 | 71 | 122 | 6.0 | 12.0 | 0.00 | 0.00 | 0.00 | 46 | 1015.0 |
| 20260507225027 | 72 | 134 | 6.0 | 10.0 | 0.00 | 0.00 | 0.00 | 45 | 1015.1 |
| 20260507224527 | 72 | 187 | 8.0 | 11.0 | 0.00 | 0.00 | 0.00 | 46 | 1015.2 |
| 20260507222027 | 71 | 130 | 8.0 | 13.0 | 0.00 | 0.00 | 0.00 | 47 | 1015.4 |
| 20260507221527 | 71 | 119 | 11.0 | 13.0 | 0.00 | 0.00 | 0.00 | 47 | 1015.4 |
| 20260507221027 | 71 | 114 | 6.0 | 14.0 | 0.00 | 0.00 | 0.00 | 49 | 1015.4 |
| 20260507220527 | 71 | 106 | 8.0 | 14.0 | 0.00 | 0.00 | 0.00 | 49 | 1015.3 |
| 20260507215028 | 71 | 103 | 11.0 | 16.0 | 0.00 | 0.00 | 0.00 | 47 | 1015.5 |
| 20260507214527 | 72 | 119 | 6.0 | 13.0 | 0.00 | 0.00 | 0.00 | 47 | 1015.5 |
| 20260507214028 | 72 | 87 | 8.0 | 13.0 | 0.00 | 0.00 | 0.00 | 48 | 1015.5 |
| 20260507213527 | 71 | 75 | 5.0 | 11.0 | 0.00 | 0.00 | 0.00 | 43 | 1015.6 |
| 20260507213027 | 72 | 40 | 6.0 | 11.0 | 0.00 | 0.00 | 0.00 | 43 | 1015.6 |
| 20260507212527 | 72 | 76 | 9.0 | 10.0 | 0.00 | 0.00 | 0.00 | 44 | 1015.6 |
| 20260507212027 | 73 | 80 | 9.0 | 10.0 | 0.00 | 0.00 | 0.00 | 43 | 1015.7 |
| 20260507211528 | 71 | 6 | 2.0 | 14.0 | 0.00 | 0.00 | 0.00 | 44 | 1015.8 |
| 20260507211027 | 71 | 31 | 7.0 | 14.0 | 0.00 | 0.00 | 0.00 | 45 | 1015.8 |
| 20260507210527 | 72 | 71 | 7.0 | 14.0 | 0.00 | 0.00 | 0.00 | 45 | 1016.0 |
| 20260507210027 | 71 | 96 | 7.0 | 15.0 | 0.00 | 0.00 | 0.00 | 44 | 1015.8 |
| 20260507205527 | 71 | 51 | 10.0 | 15.0 | 0.00 | 0.00 | 0.00 | 44 | 1015.8 |
| 20260507205027 | 71 | 11 | 4.0 | 11.0 | 0.00 | 0.00 | 0.00 | 43 | 1016.0 |
| 20260507204527 | 72 | 38 | 8.0 | 11.0 | 0.00 | 0.00 | 0.00 | 44 | 1015.8 |
| 20260507204027 | 73 | 10 | 6.0 | 9.0 | 0.00 | 0.00 | 0.00 | 45 | 1016.0 |
| 20260507203527 | 71 | 279 | 2.0 | 10.0 | 0.00 | 0.00 | 0.00 | 44 | 1016.1 |
| 20260507203029 | 71 | 320 | 7.0 | 12.0 | 0.00 | 0.00 | 0.00 | 43 | 1016.2 |
| 20260507202527 | 72 | 358 | 9.0 | 13.0 | 0.00 | 0.00 | 0.00 | 43 | 1016.1 |
| 20260507202027 | 71 | 345 | 9.0 | 14.0 | 0.00 | 0.00 | 0.00 | 45 | 1016.3 |
| 20260507201527 | 70 | 40 | 10.0 | 14.0 | 0.00 | 0.00 | 0.00 | 45 | 1016.4 |
| 20260507195527 | 71 | 25 | 2.0 | 5.0 | 0.00 | 0.00 | 0.00 | 45 | 1016.7 |
| 20260507195027 | 71 | 309 | 3.0 | 5.0 | 0.00 | 0.00 | 0.00 | 44 | 1016.7 |
| 20260507194527 | 70 | 272 | 5.0 | 16.0 | 0.00 | 0.00 | 0.00 | 45 | 1016.7 |
| 20260507194027 | 69 | 44 | 4.0 | 17.0 | 0.00 | 0.00 | 0.00 | 45 | 1016.9 |
| 20260507193527 | 70 | 52 | 14.0 | 17.0 | 0.00 | 0.00 | 0.00 | 47 | 1016.9 |
| 20260507193027 | 69 | 38 | 9.0 | 12.0 | 0.00 | 0.00 | 0.00 | 46 | 1017.1 |
| 20260507192527 | 69 | 25 | 4.0 | 12.0 | 0.00 | 0.00 | 0.00 | 45 | 1017.2 |
| 20260507192027 | 70 | 95 | 7.0 | 16.0 | 0.00 | 0.00 | 0.00 | 46 | 1017.2 |
| 20260507191527 | 69 | 56 | 12.0 | 16.0 | 0.00 | 0.00 | 0.00 | 44 | 1017.3 |
| 20260507191028 | 69 | 38 | 11.0 | 11.0 | 0.00 | 0.00 | 0.00 | 47 | 1017.3 |
| 20260507190527 | 69 | 8 | 3.0 | 11.0 | 0.00 | 0.00 | 0.00 | 46 | 1017.4 |
| 20260507190027 | 69 | 22 | 6.0 | 13.0 | 0.00 | 0.00 | 0.00 | 46 | 1017.4 |
| 20260507185528 | 68 | 345 | 7.0 | 15.0 | 0.00 | 0.00 | 0.00 | 47 | 1017.5 |
| 20260507185027 | 68 | 21 | 11.0 | 15.0 | 0.00 | 0.00 | 0.00 | 46 | 1017.4 |
| 20260507184528 | 68 | 34 | 15.0 | 19.0 | 0.00 | 0.00 | 0.00 | 48 | 1017.4 |
| 20260507184027 | 68 | 20 | 12.0 | 19.0 | 0.00 | 0.00 | 0.00 | 47 | 1017.5 |
| 20260507183527 | 68 | 57 | 16.0 | 20.0 | 0.00 | 0.00 | 0.00 | 48 | 1017.6 |
| 20260507183027 | 67 | 48 | 14.0 | 20.0 | 0.00 | 0.00 | 0.00 | 48 | 1017.6 |
| 20260507182027 | 67 | 15 | 11.0 | 17.0 | 0.00 | 0.00 | 0.00 | 49 | 1017.7 |
| 20260507181527 | 67 | 29 | 15.0 | 17.0 | 0.00 | 0.00 | 0.00 | 48 | 1017.8 |
| 20260507181027 | 67 | 40 | 15.0 | 15.0 | 0.00 | 0.00 | 0.00 | 49 | 1017.9 |
| 20260507180528 | 67 | 339 | 5.0 | 15.0 | 0.00 | 0.00 | 0.00 | 47 | 1018.3 |
| 20260507180027 | 67 | 20 | 6.0 | 15.0 | 0.00 | 0.00 | 0.00 | 46 | 1018.4 |
| 20260507175527 | 67 | 52 | 12.0 | 15.0 | 0.00 | 0.00 | 0.00 | 47 | 1018.4 |
| 20260507175027 | 66 | 59 | 3.0 | 14.0 | 0.00 | 0.00 | 0.00 | 51 | 1018.6 |
| 20260507174527 | 67 | 22 | 5.0 | 11.0 | 0.00 | 0.00 | 0.00 | 47 | 1018.7 |
| 20260507174027 | 67 | 356 | 5.0 | 14.0 | 0.00 | 0.00 | 0.00 | 48 | 1018.9 |
| 20260507173527 | 67 | 357 | 9.0 | 14.0 | 0.00 | 0.00 | 0.00 | 47 | 1018.9 |
| 20260507173027 | 66 | 338 | 5.0 | 13.0 | 0.00 | 0.00 | 0.00 | 49 | 1019.1 |
| 20260507172527 | 66 | 81 | 7.0 | 16.0 | 0.00 | 0.00 | 0.00 | 47 | 1019.2 |
| 20260507172027 | 67 | 62 | 13.0 | 20.0 | 0.00 | 0.00 | 0.00 | 47 | 1019.3 |
| 20260507171527 | 67 | 55 | 17.0 | 20.0 | 0.00 | 0.00 | 0.00 | 46 | 1019.2 |
| 20260507170528 | 65 | 52 | 7.0 | 18.0 | 0.00 | 0.00 | 0.00 | 50 | 1019.4 |
| 20260507170027 | 65 | 61 | 14.0 | 18.0 | 0.00 | 0.00 | 0.00 | 50 | 1019.4 |
| 20260507165528 | 65 | 60 | 5.0 | 16.0 | 0.00 | 0.00 | 0.00 | 49 | 1019.5 |
| 20260507164527 | 65 | 55 | 12.0 | 16.0 | 0.00 | 0.00 | 0.00 | 49 | 1019.6 |
| 20260507164027 | 65 | 1 | 9.0 | 16.0 | 0.00 | 0.00 | 0.00 | 48 | 1019.6 |
| 20260507163527 | 64 | 26 | 12.0 | 16.0 | 0.00 | 0.00 | 0.00 | 51 | 1019.7 |
| 20260507163028 | 64 | 33 | 12.0 | 16.0 | 0.00 | 0.00 | 0.00 | 50 | 1019.7 |
| 20260507161527 | 64 | 42 | 5.0 | 16.0 | 0.00 | 0.00 | 0.00 | 54 | 1019.8 |
| 20260507160027 | 63 | 3 | 9.0 | 14.0 | 0.00 | 0.00 | 0.00 | 55 | 1019.9 |
| 20260507155527 | 63 | 82 | 7.0 | 11.0 | 0.00 | 0.00 | 0.00 | 55 | 1019.9 |
| 20260507155027 | 63 | 45 | 8.0 | 11.0 | 0.00 | 0.00 | 0.00 | 57 | 1019.9 |
| 20260507154527 | 62 | 41 | 11.0 | 12.0 | 0.00 | 0.00 | 0.00 | 59 | 1020.0 |
| 20260507154028 | 61 | 86 | 7.0 | 14.0 | 0.00 | 0.00 | 0.00 | 58 | 1020.1 |
| 20260507153528 | 62 | 53 | 12.0 | 14.0 | 0.00 | 0.00 | 0.00 | 57 | 1020.1 |
| 20260507153028 | 62 | 44 | 11.0 | 11.0 | 0.00 | 0.00 | 0.00 | 56 | 1020.1 |
| 20260507152527 | 61 | 44 | 6.0 | 13.0 | 0.00 | 0.00 | 0.00 | 59 | 1020.3 |
| 20260507151027 | 61 | 60 | 11.0 | 15.0 | 0.00 | 0.00 | 0.00 | 61 | 1020.1 |
| 20260507150528 | 61 | 37 | 13.0 | 13.0 | 0.00 | 0.00 | 0.00 | 60 | 1020.1 |
| 20260507150027 | 60 | 55 | 11.0 | 13.0 | 0.00 | 0.00 | 0.00 | 67 | 1020.3 |
| 20260507145528 | 60 | 62 | 12.0 | 12.0 | 0.00 | 0.00 | 0.00 | 68 | 1020.4 |
| 20260507145029 | 59 | 71 | 6.0 | 9.0 | 0.00 | 0.00 | 0.00 | 69 | 1020.6 |
| 20260507144527 | 58 | 20 | 8.0 | 9.0 | 0.00 | 0.00 | 0.00 | 71 | 1020.5 |
| 20260507144027 | 58 | 42 | 6.0 | 9.0 | 0.00 | 0.00 | 0.00 | 72 | 1020.6 |
| 20260507143528 | 58 | 26 | 4.0 | 9.0 | 0.00 | 0.00 | 0.00 | 72 | 1020.7 |
| 20260507143028 | 58 | 30 | 8.0 | 9.0 | 0.00 | 0.00 | 0.00 | 72 | 1020.6 |
| 20260507142527 | 57 | 21 | 8.0 | 9.0 | 0.00 | 0.00 | 0.00 | 73 | 1020.7 |
| 20260507141527 | 57 | 15 | 3.0 | 8.0 | 0.00 | 0.00 | 0.00 | 74 | 1020.9 |
| 20260507141027 | 56 | 44 | 5.0 | 9.0 | 0.00 | 0.00 | 0.00 | 75 | 1020.9 |
| 20260507140529 | 56 | 19 | 7.0 | 9.0 | 0.00 | 0.00 | 0.00 | 75 | 1020.9 |
| 20260507140027 | 56 | 356 | 8.0 | 9.0 | 0.00 | 0.00 | 0.00 | 74 | 1020.8 |
| 20260507135527 | 56 | 19 | 7.0 | 9.0 | 0.00 | 0.00 | 0.00 | 77 | 1020.9 |
| 20260507135027 | 55 | 11 | 7.0 | 8.0 | 0.00 | 0.00 | 0.00 | 77 | 1020.9 |
| 20260507134529 | 55 | 2 | 7.0 | 9.0 | 0.00 | 0.00 | 0.00 | 77 | 1020.9 |